Location: Holmes Observatory
(37.1039°N, 122.0513°W)
Time: 17:13:19
(UTC-07:00)

Daily predictions for brighter satellites

Satellite Brightness Start Highest point End
(mag) Time Altitude Azimuth Time Altitude Azimuth Time Altitude Azimuth
NOSS 3-1 (C) 3.4 21:00:42 10° SSW 21:06:24 65° ESE 21:12:40 10° NE
Cosmos 1300 4.3 21:05:03 10° NNE 21:07:52 19° ENE 21:10:40 10° ESE
Cosmos 2227 Rocket 3.7 21:06:31 10° SE 21:10:00 17° E 21:13:29 10° ENE
USA 186 2.6 21:09:04 10° SSW 21:11:09 33° W 21:13:21 10° NNW
CZ-4 DEB 3.2 21:10:25 10° S 21:13:35 64° W 21:16:47 10° NNW
Cosmos 2112 Rocket 4.1 21:08:54 10° NNW 21:14:07 63° ENE 21:19:21 10° SSE
H-2A R/B 2.5 21:14:05 10° SSE 21:18:29 53° ENE 21:22:52 10° N
Cosmos 2266 Rocket 4.1 21:14:23 10° S 21:20:41 90° E 21:26:54 10° N
OTV 4 0.6 21:20:13 10° WSW 21:23:06 48° SSE 21:25:58 10° E
SPOT 5 3.6 21:19:17 11° SE 21:23:23 36° ENE 21:27:50 10° N
Cosmos 1666 Rocket 4.4 21:19:58 10° SSE 21:23:52 32° E 21:27:50 10° NNE
H-2A R/B 4.3 21:22:11 10° SSW 21:25:41 33° W 21:29:09 10° NNW
Cosmos 2298 Rocket 4.1 21:22:13 10° S 21:27:25 59° ESE 21:32:38 10° NNE
Hubble Space Telescope 2.3 21:25:36 10° SSW 21:28:32 19° SSE 21:30:22 15° SE
CZ-4B R/B 4.5 21:26:08 10° NE 21:30:36 28° E 21:34:27 12° SSE
Meteor 1-11 4.5 21:25:40 10° SSE 21:31:13 51° E 21:36:45 10° NNE
Cosmos 1726 3.3 21:28:21 10° NNE 21:31:39 28° ENE 21:33:55 16° SE
Cosmos 2333 Rocket 3.6 21:29:01 10° N 21:33:41 25° ENE 21:37:44 12° ESE
Cosmos 2297 Rocket 3.5 21:33:34 14° SE 21:36:21 20° E 21:40:18 10° NE
Meteor 1-4 Rocket 3.9 21:36:38 10° NNE 21:39:42 24° ENE 21:41:20 18° ESE
Cosmos 2315 Rocket 4.0 21:34:22 10° N 21:40:35 74° E 21:46:45 10° SSE
Cosmos 2219 Rocket 3.0 21:35:56 10° N 21:41:03 35° ENE 21:44:51 16° ESE
Cosmos 2058 2.8 21:38:08 10° S 21:42:14 82° E 21:46:21 10° N
Cosmos 2151 3.7 21:39:42 10° SSW 21:43:49 54° W 21:47:57 10° N
COSMOS 2428 2.7 21:40:12 10° NNW 21:45:54 80° ENE 21:50:26 17° SSE
DELTA 2 R/B (1) 4.3 21:42:39 10° W 21:47:48 40° SSW 21:51:24 18° SSE
Cosmos 1244 Rocket 4.5 21:42:33 10° S 21:48:49 73° E 21:55:04 10° N
Cosmos 1680 Rocket 4.3 21:44:25 10° NNW 21:49:29 50° WSW 21:54:33 10° S
Tiangong 1 2.8 21:50:31 10° WNW 21:53:23 33° N 21:56:14 10° NE
Terra 3.8 21:53:15 11° E 21:55:14 14° ENE 21:57:42 10° NNE
Delta 2 Rocket 3.1 21:54:05 10° W 21:57:45 54° SSW 21:59:11 30° SE
Cosmos 1939 Rocket 3.6 21:54:32 11° S 21:58:13 49° W 22:02:00 10° NNW
Cosmos 1898 Rocket 3.5 21:53:20 10° SSW 21:58:30 83° WNW 22:03:45 10° NNE
H-2A R/B 3.7 21:56:03 15° E 21:58:41 21° ENE 22:02:37 10° NNE
Cosmos 858 Rocket 4.5 21:55:25 10° SSW 22:00:37 87° WNW 22:05:51 10° NNE
CZ-4 SHROUD 3.1 22:01:22 29° S 22:02:50 87° WSW 22:05:59 10° NNW
Cosmos 1980 4.4 22:00:23 10° N 22:05:42 41° ENE 22:08:41 23° ESE
Cosmos 1745 Rocket 4.2 22:01:30 18° SSE 22:05:59 51° E 22:11:55 10° NNE
SL-23 DEB 4.2 22:03:16 10° WNW 22:07:55 51° SW 22:09:21 30° SSE
MetOp-B 4.1 22:04:48 20° SSE 22:08:35 84° ENE 22:13:57 10° NNW
SPOT 1/Viking Rocket 3.6 22:08:10 25° SE 22:11:04 61° ENE 22:16:10 10° N
Cosmos 1626 3.1 22:11:29 29° E 22:11:47 29° E 22:15:04 10° NNE
NOSS 3-1 (A) 4.1 22:06:29 10° SW 22:12:13 56° NW 22:18:35 10° NNE
Sich 1 3.2 22:08:24 12° SSW 22:12:32 76° W 22:16:57 10° N
OAO 2 Rocket 3.4 22:08:02 10° W 22:13:20 70° S 22:16:59 20° E
Cosmos 1271 Rocket 2.7 22:10:43 10° N 22:14:34 67° E 22:16:00 36° SSE
ERBS 3.4 22:11:59 10° WSW 22:15:22 47° NW 22:18:46 10° NNE
YAOGAN 6 2.5 22:13:57 35° SSE 22:15:23 85° ENE 22:18:59 10° N
Iridium 2 3.9 22:15:42 38° SE 22:16:48 52° E 22:20:34 10° NNE
Cosmos 2237 Rocket 2.7 22:11:56 10° N 22:17:26 47° ENE 22:20:07 28° ESE
Cosmos 1633 Rocket 3.4 22:16:40 13° SSW 22:20:33 65° W 22:24:54 10° N
Cosmos 1862 Rocket 4.3 22:17:20 10° NNE 22:21:21 35° ENE 22:22:14 32° ESE
Cosmos 2082 3.6 22:15:59 10° SSW 22:21:41 72° ESE 22:27:23 10° NNE
Cosmos 2360 Rocket 4.3 22:21:41 10° NW 22:25:44 20° W 22:29:46 10° SW
Cosmos 1703 3.3 22:25:33 28° SSW 22:27:33 77° W 22:31:28 10° N
CZ-4C R/B 3.8 22:27:55 35° E 22:28:05 35° ENE 22:31:17 10° N
NOAA 11 4.1 22:26:59 32° SSE 22:29:36 74° ENE 22:35:04 10° N
Cosmos 2242 Rocket 3.7 22:25:33 10° N 22:30:02 76° W 22:32:08 31° S
Envisat 4.4 22:28:45 11° SSW 22:33:07 32° W 22:37:39 10° NNW
ATLAS 2AS CENTAUR R/B 2.9 22:26:44 10° SSW 22:34:06 81° ESE 22:42:08 10° NE
CZ-4 R/B 3.8 22:29:42 10° NNE 22:34:37 87° ESE 22:37:15 27° SSW
USA 245 3.4 22:35:52 39° NW 22:35:52 39° NW 22:37:31 10° NNW
Cosmos 192 4.4 22:39:39 10° N 22:44:32 61° ENE 22:45:44 46° SE
ATLAS 3B R/B 3.3 22:38:10 10° NNW 22:44:49 44° NE 22:47:56 28° ESE
CZ-3A R/B 4.0 22:30:03 10° WSW 22:45:24 31° SSW 22:46:45 28° S
Cosmos 2227 Rocket 2.7 22:47:54 10° SW 22:53:28 58° WNW 22:59:04 10° NNE
DELTA 2 DEB (DPAF) 4.1 22:56:34 59° S 22:57:24 85° WSW 23:01:55 10° NNW
OTV 4 2.4 22:56:27 10° W 22:57:53 25° W 22:57:53 25° W
DMSP B5D2-2 4.0 22:55:00 10° NNE 23:00:12 68° ESE 23:01:16 53° SSE
Cosmos 1455 2.5 23:02:02 10° NNW 23:05:48 60° W 23:05:54 59° WSW
BREEZE-M DEB (TANK) 3.9 23:04:34 10° NNW 23:06:26 28° NNE 23:06:26 28° NNE
NOSS 2-3 (E) 3.7 23:08:25 65° SSE 23:08:52 69° ESE 23:14:14 10° NE
ARGOS 3.9 23:07:47 30° SSW 23:09:57 44° W 23:15:05 10° NNW
SL-16 R/B 2.4 23:07:41 10° NNW 23:13:19 60° ENE 23:14:25 51° ESE
Landsat 7 4.1 23:15:45 49° SW 23:16:35 57° W 23:21:16 10° NNW
Cosmos 2333 Rocket 2.9 23:12:41 10° NW 23:18:09 45° WSW 23:19:45 36° SSW
Cosmos 2297 Rocket 2.9 23:15:16 14° SW 23:19:55 50° WNW 23:25:26 10° NNE
SeaSat 1 4.4 23:20:10 15° ENE 23:21:37 17° NE 23:24:47 10° N
Lacrosse 4 Rocket 1.6 23:17:17 10° NNW 23:21:37 69° NE 23:21:37 69° NE
Cosmos 44 Rocket 3.3 23:22:01 69° SSW 23:22:40 84° ESE 23:27:55 10° NNE
Cosmos 1703 Rocket 3.7 23:18:38 10° N 23:22:39 65° NE 23:22:39 65° NE
Cosmos 2219 Rocket 3.6 23:20:06 10° NW 23:24:49 28° WSW 23:26:34 24° SW
Cosmos 1933 3.6 23:21:57 10° N 23:25:27 64° N 23:25:27 64° N
Tiangong 1 3.4 23:27:40 10° WNW 23:29:30 24° NNW 23:29:30 24° NNW
Terra 2.1 23:32:08 55° WSW 23:32:27 57° W 23:37:08 10° NNW
Cosmos 1269 Rocket 3.9 23:27:39 10° NNW 23:32:57 76° WSW 23:33:24 70° SSW
NOSS 2-3 (C) 4.1 23:34:59 49° WSW 23:36:14 69° WNW 23:41:46 10° NNE
H-2A R/B 2.7 23:36:42 43° SW 23:37:40 48° W 23:42:56 10° NNW
Cosmos 2221 Rocket 3.9 23:42:23 10° NNW 23:46:31 63° WNW 23:46:31 63° WNW
COSMOS 2455 2.9 23:41:33 10° NNW 23:47:31 65° WSW 23:48:06 61° SW
Cosmos 1603 4.3 23:42:13 10° N 23:47:39 44° ENE 23:48:14 42° E
Spot 4 4.3 23:47:41 52° WSW 23:47:44 52° W 23:52:29 10° NNW
Cosmos 389 Rocket 4.2 23:44:23 10° N 23:46:22 31° N 23:46:22 31° N
Cosmos 1048 Rocket 4.1 23:43:27 10° NNW 23:48:47 68° WSW 23:48:57 68° WSW
Cosmos 158 Rocket 4.1 23:45:12 10° N 23:50:15 62° ENE 23:50:15 62° ENE
